Weather History for KHST - March, 2013

Change the Weather History Date:

Wednesday, March 13, 2013

  Actual Average Record
Temperature  
Mean Temperature 67 °F -  
Max Temperature 77 °F 80 °F 89 °F (1962)
Min Temperature 57 °F 59 °F 40 °F (1931)
Cooling Degree Days 2    
Growing Degree Days 17 (Base 50)    
Moisture  
Dew Point 54 °F    
Average Humidity 65    
Maximum Humidity 94    
Minimum Humidity 34    
Precipitation  
Precipitation 0.00 in - - ()
Sea Level Pressure  
Sea Level Pressure 30.07 in    
Wind  
Wind Speed 10 mph (North)    
Max Wind Speed 20 mph    
Max Gust Speed 24 mph    
Visibility 10 miles    
Events      
Averages and records for this station are not official NWS values.
T = Trace of Precipitation, MM = Missing Value Source: NWS Daily Summary

Daily Weather History Graph

Daily Weather History Graph

Search for Another Location

Airport or City:

Trip Planner

Search our weather history database for the weather conditions in past years. The results will help you decide how hot, cold, wet, or windy it might be!

Date:

Astronomy

Mar. 13, 2013 Rise Set
Actual Time 7:32 AM EDT 7:29 PM EDT
Civil Twilight 7:09 AM EDT 7:52 PM EDT
Nautical Twilight 6:43 AM EDT 8:19 PM EDT
Astronomical Twilight 6:16 AM EDT 8:45 PM EDT
Moon 8:26 AM EDT (3/13) 9:25 PM EDT (3/13)
Length of Visible Light 12h 42m
Length of Day
11h 57m
Waxing Crescent, 4% of the Moon is Illuminated
Mar 13
Waxing Crescent
Mar 19
First Quarter
Mar 27
Full
Apr 3
Last Quarter
Apr 10
New

Hourly Weather History & Observations

Time (EDT) Temp. Dew Point Humidity Pressure Visibility Wind Dir Wind Speed Gust Speed Precip Events Conditions
12:58 AM 68.0 °F 66.2 °F 94% 30.02 in 10.0 mi NW 4.6 mph - N/A   Clear
1:38 AM 68.0 °F 66.2 °F 94% 30.02 in 10.0 mi WNW 4.6 mph - N/A   Mostly Cloudy
1:54 AM 68.0 °F 66.2 °F 94% 30.02 in 10.0 mi WNW 4.6 mph - N/A   Mostly Cloudy
1:58 AM 68.0 °F 66.2 °F 94% 30.03 in 10.0 mi WNW 4.6 mph - N/A   Scattered Clouds
2:58 AM 68.0 °F 64.4 °F 88% 30.01 in 10.0 mi WNW 8.1 mph - N/A   Scattered Clouds
3:43 AM 68.0 °F 62.6 °F 83% 30.00 in 10.0 mi WNW 6.9 mph - N/A   Mostly Cloudy
3:58 AM 68.0 °F 62.6 °F 83% 30.01 in 10.0 mi NW 6.9 mph - N/A   Mostly Cloudy
4:58 AM 66.2 °F 62.6 °F 88% 30.01 in 10.0 mi NW 8.1 mph - N/A   Overcast
5:33 AM 66.2 °F 60.8 °F 83% 30.01 in 10.0 mi NNW 13.8 mph - N/A   Mostly Cloudy
5:58 AM 64.4 °F 59.0 °F 83% 30.03 in 10.0 mi NNW 10.4 mph - N/A   Overcast
6:23 AM 60.8 °F 53.6 °F 77% 30.02 in 10.0 mi NNW 15.0 mph - N/A   Mostly Cloudy
6:58 AM 60.8 °F 53.6 °F 77% 30.05 in 10.0 mi NNW 9.2 mph - N/A   Clear
7:58 AM 57.2 °F 53.6 °F 88% 30.08 in 10.0 mi NNW 10.4 mph - N/A   Scattered Clouds
8:08 AM 57.2 °F 53.6 °F 88% 30.07 in 10.0 mi NNW 10.4 mph - N/A   Mostly Cloudy
8:13 AM 57.2 °F 53.6 °F 88% 30.07 in 10.0 mi NNW 9.2 mph - N/A   Scattered Clouds
8:18 AM 57.2 °F 53.6 °F 88% 30.08 in 10.0 mi NNW 9.2 mph - N/A   Mostly Cloudy
8:23 AM 57.2 °F 53.6 °F 88% 30.08 in 10.0 mi NNW 10.4 mph - N/A   Scattered Clouds
8:58 AM 59.0 °F 53.6 °F 82% 30.09 in 10.0 mi North 11.5 mph - N/A   Clear
9:58 AM 62.6 °F 50.0 °F 63% 30.11 in 10.0 mi NNW 18.4 mph - N/A   Clear
10:58 AM 66.2 °F 50.0 °F 56% 30.12 in 10.0 mi NNW 13.8 mph - N/A   Clear
11:58 AM 69.8 °F 48.2 °F 46% 30.12 in 10.0 mi North 17.3 mph - N/A   Clear
12:58 PM 73.4 °F 46.4 °F 38% 30.11 in 10.0 mi North 16.1 mph - N/A   Clear
1:10 PM 73.4 °F 46.4 °F 38% 30.10 in 10.0 mi NNW 16.1 mph - N/A   Light Drizzle
1:14 PM 75.2 °F 46.4 °F 36% 30.09 in 10.0 mi North 17.3 mph - N/A   Clear
1:15 PM 75.2 °F 46.4 °F 36% 30.09 in 10.0 mi North 18.4 mph - N/A   Light Drizzle
1:16 PM 75.2 °F 44.6 °F 34% 30.09 in 10.0 mi North 18.4 mph - N/A   Clear
1:17 PM 75.2 °F 44.6 °F 34% 30.09 in 10.0 mi North 18.4 mph - N/A   Light Drizzle
1:19 PM 75.2 °F 44.6 °F 34% 30.10 in 10.0 mi North 19.6 mph 24.2 mph N/A   Clear
1:27 PM 75.2 °F 46.4 °F 36% 30.09 in 10.0 mi NNE 15.0 mph 24.2 mph N/A   Light Drizzle
1:36 PM 75.2 °F 46.4 °F 36% 30.09 in 10.0 mi North 16.1 mph - N/A   Clear
1:42 PM 73.4 °F 44.6 °F 36% 30.09 in 10.0 mi North 17.3 mph 20.7 mph N/A   Clear
1:58 PM 75.2 °F 46.4 °F 36% 30.09 in 10.0 mi North 15.0 mph - N/A   Clear
2:58 PM 77.0 °F 46.4 °F 34% 30.07 in 10.0 mi North 12.7 mph 24.2 mph N/A   Clear
3:10 PM 77.0 °F 48.2 °F 36% 30.06 in 10.0 mi NE 13.8 mph - N/A   Clear
3:58 PM 77.0 °F 57.2 °F 50% 30.06 in 10.0 mi ENE 11.5 mph - N/A   Clear
4:58 PM 73.4 °F 60.8 °F 65% 30.05 in 10.0 mi ENE 13.8 mph - N/A   Clear
5:58 PM 73.4 °F 59.0 °F 61% 30.06 in 10.0 mi ENE 13.8 mph - N/A   Clear
6:58 PM 71.6 °F 59.0 °F 64% 30.08 in 10.0 mi NE 10.4 mph - N/A   Clear
7:58 PM 66.2 °F 57.2 °F 73% 30.09 in 10.0 mi ENE 6.9 mph - N/A   Clear
8:58 PM 64.4 °F 55.4 °F 73% 30.11 in 10.0 mi NE 5.8 mph - N/A   Clear
9:58 PM 62.6 °F 53.6 °F 72% 30.13 in 10.0 mi NNE 4.6 mph - N/A   Clear
10:58 PM 62.6 °F 51.8 °F 68% 30.14 in 10.0 mi North 5.8 mph - N/A   Clear
11:58 PM 62.6 °F 51.8 °F 68% 30.15 in 10.0 mi North 2.3 mph - N/A   Clear